This demonstration page uses our WeatherBlox Daily Observations layout. Learn more.

Left ArrowRight Arrow

34.02893, -84.19858

Hourly Observations for March 15, 2022

Temp ( °F °C ) Dew Point ( °F °C ) Humidity (%) Winds ( mph kmh ) Pressure ( in mb ) Visibility ( mi km ) Precip ( " mm )
12:53 am 00:53 Clear 45 7.2 29 -1.7 54 54 Calm 30.35 1028 10 16 0.00 0.00
1:53 am 01:53 Clear 44 6.7 33 0.6 65 65 Calm 30.34 1027 10 16 0.00 0.00
2:53 am 02:53 Mostly Clear 45 7.2 32 0 61 61 Calm 30.33 1027 10 16 0.00 0.00
3:53 am 03:53 Clear 48 8.9 34 1.1 58 58 SE 3 6 30.31 1026 10 16 0.00 0.00
4:53 am 04:53 Mostly Cloudy 47 8.3 37 2.8 69 69 Calm 30.29 1026 10 16 0.00 0.00
5:53 am 05:53 Clear 46 7.8 39 3.9 77 77 Calm 30.28 1025 10 16 0.00 0.00
6:53 am 06:53 Clear 48 8.9 42 5.6 80 80 Calm 30.29 1026 10 16 0.00 0.00
7:53 am 07:53 Partly Cloudy 47 8.3 41 5 80 80 Calm 30.29 1026 10 16 0.00 0.00
8:53 am 08:53 Mostly Cloudy 50 10 43 6.1 77 77 VRB 3 6 30.31 1026 10 16 0.00 0.00
9:53 am 09:53 Mostly Sunny 53 11.7 44 6.7 72 72 VRB 3 6 30.29 1026 10 16 0.00 0.00
10:53 am 10:53 Partly Cloudy 59 15 48 8.9 67 67 undefined N/A 30.28 1025 10 16 0.00 0.00
11:53 am 11:53 Mostly Cloudy 62 16.7 49 9.4 62 62 VRB 6 9 30.28 1025 10 16 0.00 0.00
12:53 pm 12:53 Mostly Cloudy 64 17.8 50 10 60 60 undefined N/A 30.25 1025 10 16 0.00 0.00
1:53 pm 13:53 Mostly Cloudy 65 18.3 50 10 59 59 ESE 6 9 30.23 1024 10 16 0.00 0.00
2:53 pm 14:53 Mostly Cloudy 65 18.3 49 9.4 56 56 ESE 6 9 30.20 1023 10 16 0.00 0.00
3:15 pm 15:15 Cloudy with Light Rain 64 17.8 51 10.6 63 63 E 5 7 30.18 1022 5 8 0.00 0.00
3:53 pm 15:53 Cloudy 62 16.7 52 11.1 70 70 ESE 6 9 30.20 1023 10 16 0.00 0.00
4:53 pm 16:53 Cloudy 62 16.7 52 11.1 70 70 VRB 3 6 30.16 1022 10 16 0.00 0.00
5:53 pm 17:53 Cloudy 61 16.1 52 11.1 72 72 VRB 6 9 30.15 1021 10 16 0.00 0.00
6:53 pm 18:53 Cloudy with Light Rain 59 15 53 11.7 81 81 E 9 15 30.14 1021 10 16 0.01 0.25
7:53 pm 19:53 Cloudy 59 15 52 11.1 78 78 VRB 5 7 30.13 1020 10 16 0.00 0.00
8:53 pm 20:53 Cloudy with Light Rain 57 13.9 52 11.1 83 83 E 5 7 30.12 1020 8 13 0.01 0.25
9:53 pm 21:53 Cloudy with Light Rain 57 13.9 52 11.1 83 83 VRB 7 11 30.12 1020 10 16 0.00 0.00
10:38 pm 22:38 Cloudy 56 13.3 52 11.1 87 87 VRB 3 6 30.12 1020 10 16 0.00 0.00
10:50 pm 22:50 Cloudy 57 14 52 11 82 82 E 7 11 30.12 1020 10 16 0.00 0.00
10:53 pm 22:53 Cloudy 57 13.9 52 11.1 83 83 VRB 6 9 30.11 1020 10 16 0.00 0.00
11:53 pm 23:53 Cloudy with Light Rain 55 12.8 53 11.7 93 93 VRB 5 7 30.10 1019 4 6 0.02 0.51

Powered by AerisWeather